Strona główna
METAR-TAF:

METAR-TAF

Lotnisko :

Chamberlain Municipal Airport

Chamberlain, Dakota Południowa, Stany Zjednoczone

Szerokość geograficzna: 43-46-00N, Długość geograficzna: 099-19-06W, wysokość: 516 m

Aktualna obserwacja pogody

Raport powstał 23 minut temu, godzina 04:15 UTC
Wiatr 6 kt od południowy wschód
Temperatura 5°C
Wilgotność 70%
Ciśnienie 1019 hPa
Widzialność: 16.1 km
bezchmurnie

METAR: K9V9 300415Z AUTO 14006KT 10SM CLR 05/00 A3009 RMK AO2 T00540004

czas: 23:38 (04:38 UTC)


TAF: brakujący

Obserwacja i prognoza pogody dla ponad 4000 lotnisk (raport METAR i TAF).

Dostępne stacje oznaczono żółtymi i czerwonymi punktami na mapie.

Najedź kursorem aby zobaczyć nazwę stacji.

Kliknij aby zobaczyć obserwacje i prognozy pogody.

Aby zmienić mapę: kliknij na zielony przycisk z czarnym krzyżykiem, aby powiększyć; na zielony przycisk z myślnikiem, aby pomniejszyć; na zielone strzałki, aby przejść do map sąsiednich.


METAR-TAF: